Location: Boca do Mato
(22.9085°S, 43.2930°W)
Time: 03:27:49
(UTC+00:00)

Cosmos 2360 Rocket - Visible Passes

Search period start: 23 October 2020 00:00
Search period end: 02 November 2020 00:00
Orbit: 835 x 844 km, 71.0° (Epoch: 22 October)

Date Brightness Start Highest point End Pass type
(mag) Time Alt. Az. Time Alt. Az. Time Alt. Az.
23 Oct 3.8 22:00:44 10° SSE 22:04:16 17° ESE 22:05:13 16° ESE visible
23 Oct 3.4 23:42:57 10° SSW 23:47:01 38° WSW 23:47:01 38° WSW visible
24 Oct 3.9 21:45:14 10° SSE 21:48:29 15° ESE 21:50:30 13° E visible
24 Oct 2.9 23:27:08 10° SSW 23:32:18 48° W 23:32:18 48° W visible
25 Oct 4.0 21:29:48 10° SSE 21:32:42 14° ESE 21:35:35 10° E visible
25 Oct 2.7 23:11:21 10° SSW 23:16:53 53° WNW 23:17:40 49° NW visible
26 Oct 2.7 22:55:34 10° SSW 23:01:09 57° WNW 23:03:06 38° NNW visible
27 Oct 2.6 22:39:47 10° SSW 22:45:25 63° WNW 22:48:38 26° N visible
28 Oct 2.5 22:24:01 10° SSW 22:29:41 68° WNW 22:34:15 16° N visible
29 Oct 2.4 22:08:16 10° SSW 22:13:57 74° WNW 22:19:35 10° N visible
30 Oct 2.3 21:52:30 10° SSW 21:58:13 80° WNW 22:03:52 10° NNE visible
31 Oct 2.3 21:36:45 10° SSW 21:42:29 87° WNW 21:48:08 10° NNE visible
01 Nov 2.3 21:21:01 10° SSW 21:26:45 87° ESE 21:32:24 10° NNE visible
